Simultaneous Nadir Overpasses (SNOs) Predictions

Prediction of SNOs between GOES-15 and METOP-B Satellite Orbit:

Table of predicted SNOs for the next 14.0 days since TLE Epoch: 2/10/2017
Index Date Time (GOES-15) GOES-15 Lat,Lon METOP-B Lat,Lon Distance(km) Time Diff (sec)
1 02/10/2017 06:25:25 -0.03,-135.41 0.35,-133.82 182.42 80
2 02/11/2017 18:46:56 0.04,-135.39 0.73,-138.37 339.57 80
3 02/12/2017 18:23:38 0.04,-135.39 -0.43,-133.39 229.39 80
4 02/14/2017 06:45:18 -0.04,-135.41 -0.59,-137.98 292.58 80
5 02/15/2017 06:21:59 -0.04,-135.41 0.51,-132.99 276.14 80
6 02/16/2017 18:43:31 0.04,-135.38 0.50,-137.55 246.55 80
7 02/17/2017 18:20:12 0.03,-135.38 -0.60,-132.55 321.80 80
8 02/19/2017 06:39:12 -0.03,-135.38 -0.42,-137.15 201.27 80
9 02/20/2017 06:21:12 -0.03,-135.37 0.68,-132.16 366.69 80
10 02/21/2017 18:40:05 0.03,-135.34 0.32,-136.72 157.26 80
11 02/22/2017 18:19:25 0.03,-135.32 -0.79,-131.73 410.28 80




NCC Satellite Simultaneous Nadir Overpasses (SNOs) Prediction Service
